[[{"header":{"parameterUnit":"m.s-1","parameterCategory":1,"la1":30.2991,"la2":30.254,"lo1":-89.0895,"lo2":-89.0444,"dy":0.0017,"dx":0.0017,"nx":28,"ny":28,"refTime":"2024-06-11T09:00:00:Z","depth":0,"parameterNumber":2,"parameterNumberName":"U-component_of_WINDS"},"data":[0,0,0,0,0,0,0,0,0,0,0,0,0,0,0,0,0,0,0,0,0,0,0,0,0,0,0,0,0,0,0,0,0,0,0,0,0,0,0,0,0,0,0,0,0,0,0,0,0,0,0,0,0,0,0,0,0,0,0.1906,0.1905,0,0.1856,0.1855,0.1855,0.1823,0.1823,0.1823,0.1822,0.177,0.1769,0.1768,0,0,0,0,0,0,0,0,0,0,0,0,0,0.1974,0.1973,0.1906,0.1905,0.1905,0.1856,0.1855,0.1855,0.1823,0.1823,0.1823,0.1822,0.1771,0.1769,0.1768,0,0,0,0,0,0,0,0,0,0,0,0,0,0.1936,0.1972,0.1906,0.1883,0.1881,0.1856,0.1855,0.1854,0.1823,0.1823,0.1822,0.1822,0.1771,0.1769,0.1768,0.1762,0,0,0.1762,0.1761,0,0,0,0,0,0,0,0,0.1938,0.1934,0.1887,0.1885,0.1882,0.1845,0.186,0.1823,0.1823,0.1845,0.1822,0.1822,0.1796,0.1792,0.1783,0.1759,0.1757,0.1762,0.1761,0.176,0.176,0,0,0,0,0,0,0,0.1941,0.1936,0.1886,0.1887,0.1883,0.1875,0.1869,0.1853,0.1822,0.1843,0.1841,0.1835,0.1794,0.1785,0.1781,0.1756,0.1762,0.176,0.1759,0.1759,0.1725,0.1725,0,0,0,0,0,0,0.1947,0.1938,0.1888,0.1885,0.191,0.1874,0.1868,0.1857,0.1822,0.1817,0.1835,0.1834,0.1788,0.1784,0.1779,0.177,0.176,0.1758,0.1757,0.1725,0.1725,0.1725,0,0,0,0,0,0,0.1949,0.1943,0.189,0.1911,0.1903,0.1873,0.1862,0.1857,0.1847,0.1817,0.1811,0.1832,0.1788,0.1782,0.1766,0.1768,0.1758,0.1756,0.1725,0.1725,0.1725,0.1751,0,0,0,0,0,0,0.1951,0.1944,0.1942,0.1911,0.1902,0.1878,0.1862,0.1856,0.1844,0.1842,0.1812,0.1806,0.1787,0.1769,0.1765,0.1765,0.1754,0.1724,0.1725,0.1725,0.175,0.1752,0.1754,0,0,0,0,0,0.1954,0.1951,0.1942,0.1936,0.1899,0.1878,0.1873,0.1851,0.1844,0.1842,0.1822,0.1807,0.1768,0.1768,0.1762,0.1762,0.1724,0.1725,0.1725,0.1749,0.1752,0.1754,0,0,0,0,0,0,0.1982,0.1946,0.1936,0.1923,0.1904,0.1873,0.1869,0.1855,0.1837,0.1835,0.1808,0.1802,0.1789,0.1774,0.1774,0.1755,0.1745,0.1744,0.1765,0.1767,0.1769,0.1773,0.1753,0,0,0,0,0,0.1987,0.1973,0.1943,0.1934,0.1925,0.1899,0.1889,0.1874,0.1853,0.1844,0.1823,0.1803,0.1787,0.1776,0.1759,0.1748,0.1741,0.1745,0.1747,0.1749,0.1749,0.1741,0.1743,0.1727,0.1727,0.1727,0,0,0.1997,0.1976,0.1969,0.194,0.1923,0.1909,0.1892,0.1878,0.1868,0.1842,0.1826,0.181,0.1786,0.1773,0.1766,0.176,0.1751,0.175,0.1751,0.175,0.1742,0.1743,0.1745,0.1727,0.1727,0.1727,0,0,0.2007,0.199,0.1981,0.1965,0.194,0.1922,0.192,0.1891,0.188,0.1863,0.1844,0.1831,0.1802,0.1786,0.1774,0.1778,0.1764,0.1774,0.1784,0.1777,0.1779,0.178,0.1781,0.1782,0.1773,0.1773,0.1773,0,0.2023,0.2001,0.1978,0.1966,0.1953,0.193,0.192,0.1906,0.1876,0.1868,0.1862,0.1826,0.1808,0.179,0.1792,0.1783,0.1779,0.1777,0.178,0.1781,0.1782,0.1782,0.1783,0.1775,0.1775,0.1774,0.1774,0,0.2021,0.2007,0.2002,0.1975,0.1962,0.1951,0.1926,0.1916,0.1902,0.1885,0.1868,0.1846,0.1824,0.1819,0.1805,0.1799,0.1796,0.1786,0.1775,0.1785,0.1785,0.1785,0.1777,0.1776,0.1776,0.1775,0,0,0.2048,0.2008,0.2007,0.1994,0.1965,0.1953,0.1941,0.1919,0.1911,0.1892,0.188,0.1857,0.1848,0.1834,0.1818,0.1812,0.1816,0.1802,0.1801,0.1805,0.1808,0.1816,0.1816,0.1807,0.1807,0.1807,0.181,0,0.2054,0.2031,0.201,0.1995,0.1981,0.1958,0.1948,0.1928,0.1912,0.1898,0.188,0.1864,0.1852,0.1844,0.1837,0.1817,0.1817,0.1817,0.1796,0.1795,0.1802,0.1817,0.1824,0.1828,0.181,0.181,0.181,0,0.2057,0.2039,0.2023,0.1995,0.1988,0.1979,0.1957,0.1944,0.1922,0.1911,0.1896,0.1879,0.1864,0.1856,0.1836,0.1836,0.1827,0.1816,0.1815,0.1812,0.1803,0.1813,0.1829,0.1829,0.181,0.181,0.181,0,0.2078,0.2049,0.2036,0.2025,0.1993,0.1987,0.1973,0.195,0.1939,0.192,0.1912,0.1892,0.1881,0.1865,0.1843,0.1839,0.1825,0.1815,0.1815,0.1816,0.1813,0.1813,0.1827,0.1808,0.1808,0.1808,0.1807,0,0.2086,0.2077,0.2044,0.2036,0.2025,0.2001,0.199,0.1974,0.1954,0.1942,0.1922,0.191,0.1882,0.1868,0.1851,0.1836,0.1832,0.1822,0.1817,0.1823,0.1824,0.1816,0.1815,0.1808,0.1808,0.1808,0.1808,0,0.2107,0.2085,0.2068,0.2039,0.2031,0.2024,0.1999,0.199,0.1972,0.1957,0.1952,0.1925,0.1907,0.1884,0.1858,0.1847,0.1834,0.1827,0.1842,0.1839,0.184,0.184,0.1848,0.1848,0.183,0.183,0.183,0,0.2114,0.2106,0.2076,0.2066,0.2053,0.2038,0.2026,0.2002,0.199,0.1965,0.1958,0.1939,0.1922,0.1894,0.1872,0.1852,0.1844,0.1848,0.1841,0.1847,0.1844,0.1844,0.1843,0.185,0.185,0.1851,0.1851,0,0.2127,0.2117,0.2101,0.2081,0.2067,0.205,0.2032,0.2026,0.1998,0.1986,0.1967,0.1954,0.1928,0.1909,0.1886,0.1872,0.1856,0.1854,0.1852,0.1858,0.1867,0.1862,0.1846,0.1853,0.1853,0.1853,0.1853,0.1853,0.214,0.2132,0.211,0.2093,0.2077,0.2061,0.205,0.2032,0.2016,0.1993,0.198,0.1962,0.194,0.1908,0.1894,0.1879,0.1873,0.1872,0.1871,0.1871,0.1873,0.187,0.1875,0.1875,0.1875,0.1875,0.1875,0,0.2152,0.2137,0.2121,0.2097,0.2083,0.2071,0.2051,0.204,0.2024,0.2005,0.1989,0.1967,0.1948,0.1925,0.1904,0.1897,0.189,0.1892,0.1892,0.1889,0.1879,0.1882,0.1899,0.1899,0.1899,0.1899,0.1899,0.1899,0.2157,0.2143,0.213,0.2107,0.2092,0.2074,0.2063,0.2048,0.2033,0.201,0.1994,0.1979,0.1958,0.1936,0.1918,0.1911,0.1904,0.1909,0.1901,0.1892,0.189,0.1888,0.189,0.1908,0.1908,0.1911,0.1912,0.1912]},{"header":{"parameterUnit":"m.s-1","parameterCategory":1,"la1":30.2991,"la2":30.254,"lo1":-89.0895,"lo2":-89.0444,"dy":0.0017,"dx":0.0017,"nx":28,"ny":28,"refTime":"2024-06-11T09:00:00:Z","depth":0,"parameterNumber":3,"parameterNumberName":"V-component_of_WINDS"},"data":[0,0,0,0,0,0,0,0,0,0,0,0,0,0,0,0,0,0,0,0,0,0,0,0,0,0,0,0,0,0,0,0,0,0,0,0,0,0,0,0,0,0,0,0,0,0,0,0,0,0,0,0,0,0,0,0,0,0,-2.4792,-2.4793,0,-2.4902,-2.4904,-2.4905,-2.4912,-2.4911,-2.491,-2.4909,-2.5019,-2.5023,-2.5027,0,0,0,0,0,0,0,0,0,0,0,0,0,-2.4585,-2.4588,-2.4791,-2.4793,-2.4794,-2.4902,-2.4904,-2.4905,-2.4913,-2.4911,-2.491,-2.4908,-2.5018,-2.5023,-2.5028,0,0,0,0,0,0,0,0,0,0,0,0,0,-2.4683,-2.459,-2.4791,-2.4811,-2.4814,-2.4902,-2.4904,-2.4906,-2.4913,-2.4911,-2.4909,-2.4907,-2.5016,-2.5022,-2.5028,-2.5103,0,0,-2.5047,-2.505,0,0,0,0,0,0,0,0,-2.4677,-2.469,-2.4807,-2.481,-2.4813,-2.4892,-2.4871,-2.4972,-2.4913,-2.4875,-2.4909,-2.4907,-2.4978,-2.4987,-2.5012,-2.5109,-2.5113,-2.5048,-2.5051,-2.5054,-2.5056,0,0,0,0,0,0,0,-2.467,-2.4686,-2.4835,-2.4808,-2.4812,-2.4814,-2.4826,-2.489,-2.4936,-2.4878,-2.4879,-2.4892,-2.498,-2.5006,-2.5015,-2.5115,-2.5048,-2.5053,-2.5057,-2.5059,-2.528,-2.5282,0,0,0,0,0,0,-2.466,-2.468,-2.4832,-2.4839,-2.4739,-2.4819,-2.4832,-2.4868,-2.4935,-2.4943,-2.4894,-2.4892,-2.4997,-2.5008,-2.5019,-2.5112,-2.5054,-2.506,-2.5063,-2.5278,-2.528,-2.5282,0,0,0,0,0,0,-2.4656,-2.4674,-2.4827,-2.476,-2.4779,-2.4825,-2.4865,-2.4871,-2.4898,-2.4947,-2.4955,-2.4913,-2.4996,-2.501,-2.5083,-2.5116,-2.5063,-2.5068,-2.5275,-2.5278,-2.5281,-2.5298,0,0,0,0,0,0,-2.465,-2.4672,-2.4701,-2.476,-2.4783,-2.489,-2.4867,-2.4875,-2.4909,-2.4908,-2.4967,-2.4974,-2.4995,-2.5074,-2.5089,-2.5123,-2.5073,-2.5272,-2.5276,-2.528,-2.5294,-2.5301,-2.5307,0,0,0,0,0,-2.4642,-2.47,-2.4703,-2.4721,-2.482,-2.4892,-2.4905,-2.4928,-2.4912,-2.4941,-2.4973,-2.4973,-2.511,-2.5081,-2.5098,-2.5135,-2.527,-2.5275,-2.528,-2.5292,-2.53,-2.5307,0,0,0,0,0,0,-2.4643,-2.4708,-2.4712,-2.4791,-2.4836,-2.4893,-2.4931,-2.4936,-2.4986,-2.4983,-2.5009,-2.5022,-2.5094,-2.5122,-2.5089,-2.5211,-2.5188,-2.5197,-2.5191,-2.5199,-2.5205,-2.5197,-2.5078,0,0,0,0,0,-2.4652,-2.4706,-2.476,-2.4824,-2.4847,-2.4885,-2.4917,-2.4932,-2.4979,-2.4998,-2.5034,-2.508,-2.5133,-2.5168,-2.5219,-2.5299,-2.5312,-2.5332,-2.5338,-2.5343,-2.535,-2.5395,-2.5405,-2.5299,-2.5298,-2.5298,0,0,-2.4672,-2.4715,-2.4746,-2.4826,-2.4862,-2.4917,-2.4901,-2.4959,-2.4999,-2.5006,-2.5078,-2.5106,-2.5158,-2.5235,-2.5271,-2.526,-2.5383,-2.535,-2.5353,-2.5358,-2.5401,-2.5412,-2.5421,-2.5302,-2.5301,-2.5301,0,0,-2.4736,-2.4774,-2.4832,-2.487,-2.4926,-2.4951,-2.4965,-2.5022,-2.5042,-2.5114,-2.5121,-2.5169,-2.526,-2.5298,-2.5329,-2.5408,-2.541,-2.5424,-2.5457,-2.55,-2.5509,-2.5516,-2.5546,-2.5556,-2.5431,-2.5431,-2.5431,0,-2.4753,-2.4836,-2.4861,-2.492,-2.4954,-2.4965,-2.5024,-2.5059,-2.5129,-2.5152,-2.514,-2.5256,-2.5291,-2.5377,-2.5397,-2.5422,-2.5439,-2.5418,-2.5506,-2.5514,-2.5521,-2.5549,-2.556,-2.5433,-2.5433,-2.5432,-2.5432,0,-2.4855,-2.4912,-2.4953,-2.5021,-2.5061,-2.5119,-2.5153,-2.519,-2.5201,-2.5228,-2.5301,-2.5345,-2.5406,-2.5428,-2.5439,-2.5516,-2.5508,-2.55,-2.5477,-2.5532,-2.5559,-2.557,-2.5435,-2.5434,-2.5434,-2.5433,0,0,-2.4922,-2.5005,-2.5019,-2.5051,-2.5114,-2.5159,-2.5218,-2.5279,-2.5311,-2.5358,-2.5409,-2.5487,-2.548,-2.5516,-2.5531,-2.5569,-2.5631,-2.5557,-2.5559,-2.557,-2.5719,-2.5725,-2.5737,-2.5633,-2.5635,-2.5636,-2.5715,0,-2.4993,-2.51,-2.5125,-2.5216,-2.5269,-2.528,-2.5332,-2.5376,-2.5403,-2.5452,-2.5481,-2.5536,-2.5523,-2.5545,-2.5583,-2.5615,-2.5661,-2.561,-2.5679,-2.5682,-2.5666,-2.5751,-2.5757,-2.5829,-2.5726,-2.5728,-2.5729,0,-2.5091,-2.5142,-2.5239,-2.5297,-2.532,-2.5366,-2.5425,-2.5472,-2.5522,-2.5539,-2.5579,-2.5591,-2.5653,-2.5627,-2.5713,-2.5677,-2.5708,-2.5728,-2.5731,-2.5738,-2.5709,-2.5761,-2.5853,-2.5864,-2.5745,-2.5744,-2.5743,0,-2.513,-2.5224,-2.5295,-2.5321,-2.539,-2.5422,-2.5452,-2.5501,-2.5537,-2.5588,-2.5612,-2.5669,-2.57,-2.5744,-2.5771,-2.5749,-2.5855,-2.5831,-2.5871,-2.587,-2.5892,-2.589,-2.599,-2.5911,-2.5911,-2.5911,-2.591,0,-2.5208,-2.5267,-2.5314,-2.5357,-2.5423,-2.5452,-2.5516,-2.5546,-2.559,-2.5639,-2.5652,-2.5698,-2.5731,-2.5781,-2.5802,-2.5871,-2.5884,-2.59,-2.5905,-2.5899,-2.5897,-2.5919,-2.5915,-2.5914,-2.5913,-2.5912,-2.5912,0,-2.5263,-2.5297,-2.5375,-2.5434,-2.545,-2.5497,-2.5548,-2.559,-2.5617,-2.568,-2.5696,-2.5738,-2.5799,-2.583,-2.5905,-2.5919,-2.5996,-2.5998,-2.5979,-2.5981,-2.602,-2.6016,-2.6137,-2.6155,-2.6063,-2.6064,-2.6065,0,-2.531,-2.5356,-2.5421,-2.5456,-2.5487,-2.5542,-2.5579,-2.5608,-2.5646,-2.5708,-2.5743,-2.5804,-2.5855,-2.595,-2.5988,-2.6045,-2.6049,-2.6087,-2.6057,-2.605,-2.605,-2.6047,-2.6052,-2.6092,-2.6093,-2.6094,-2.6095,0,-2.5391,-2.5406,-2.5459,-2.5519,-2.5563,-2.5611,-2.5658,-2.5685,-2.5723,-2.5764,-2.5827,-2.5866,-2.5943,-2.6004,-2.6064,-2.6095,-2.6101,-2.6104,-2.6116,-2.6111,-2.6098,-2.6106,-2.5994,-2.6101,-2.61,-2.61,-2.6099,-2.6099,-2.5444,-2.5486,-2.5539,-2.5598,-2.5637,-2.5681,-2.5725,-2.5758,-2.5811,-2.5877,-2.5891,-2.5957,-2.6007,-2.609,-2.6122,-2.6174,-2.6166,-2.6183,-2.6188,-2.6192,-2.6194,-2.609,-2.6185,-2.6185,-2.6185,-2.6184,-2.6184,0,-2.5526,-2.5561,-2.5615,-2.5682,-2.5728,-2.5731,-2.5784,-2.5823,-2.5881,-2.5928,-2.5978,-2.605,-2.6109,-2.6152,-2.6212,-2.6246,-2.625,-2.6261,-2.6259,-2.6266,-2.6197,-2.6181,-2.6256,-2.6256,-2.6256,-2.6256,-2.6256,-2.6256,-2.5574,-2.5645,-2.5667,-2.5757,-2.5792,-2.5857,-2.5887,-2.5929,-2.5966,-2.6047,-2.6096,-2.6124,-2.617,-2.6234,-2.6288,-2.6299,-2.6321,-2.6332,-2.6343,-2.6278,-2.627,-2.6263,-2.6248,-2.6336,-2.6336,-2.6407,-2.6408,-2.6408]}]]